Regional Weather Roundup
Issued by NWS Raleigh/Durham, NC

Home | Current Version | Previous Version | Text Only | Print | Product List | Glossary On
Versions: 1 2 3 4 5 6 7 8 9 10 11 12 13 14 15 16 17 18 19 20 21 22 23 24 25 26 27 28 29 30 31 32 33 34 35 36 37 38 39 40 41 42 43 44 45 46 47 48 49 50
000
ASUS42 KRAH 060010
RWRRAH
NORTH CAROLINA WEATHER ROUNDUP
NATIONAL WEATHER SERVICE RALEIGH NC
700 PM EST THU MAR 05 2015

NOTE: "FAIR" INDICATES FEW OR NO CLOUDS BELOW 12,000 FEET WITH NO
SIGNIFICANT WEATHER AND/OR OBSTRUCTIONS TO VISIBILITY.

NCZ001-053-055-056-065-067-060100-
WESTERN NORTH CAROLINA

CITY           SKY/WX    TMP DP  RH WIND       PRES   REMARKS
ASHEVILLE      CLOUDY    31  23  72 N31G43    30.18R WCI  16
JEFFERSON      CLOUDY    25  22  87 NW18G29   30.12R WCI  11
MORGANTON      CLOUDY    38  32  77 NW6       30.22R WCI  34
HICKORY        CLOUDY    38  30  73 NE13      30.15R WCI  30
RUTHERFORDTON  DRIZZLE   37  35  89 NE9       30.17R WCI  31
MOUNT AIRY     CLOUDY    34  29  79 N6        30.24R WCI  29
BOONE          CLOUDY    25  25  99 NW24G33   30.14R WCI  10
$$

NCZ021-022-025-041-071-084-088-060100-
CENTRAL NORTH CAROLINA

CITY           SKY/WX    TMP DP  RH WIND       PRES   REMARKS
CHARLOTTE      LGT RAIN  40  35  83 NE16G26   30.17R WCI  31
GREENSBORO     LGT SNOW  34  31  88 NE14G22   30.21R FOG     WCI  25
WINSTON-SALEM  CLOUDY    35  31  85 N10       30.23R WCI  27
RALEIGH-DURHAM LGT RAIN  35  31  85 NE10G21   30.19R FOG     WCI  27
FORT BRAGG     MIX PCPN  39  36  87 N12G17    30.18R WCI  32
FAYETTEVILLE   LGT RAIN  40  38  93 N17G28    30.16R FOG     WCI  31
BURLINGTON     LGT RAIN  34  30  85 N10       30.22R WCI  26
LAURINBURG     LGT RAIN  40  38  93 NE17G25   30.16R WCI  31
$$

NCZ011-015-027-028-043-044-047-080-103-060100-
NORTHEASTERN NORTH CAROLINA

CITY           SKY/WX    TMP DP  RH WIND       PRES   REMARKS
ROCKY MT-WILSO CLOUDY    36  34  92 N14G24    30.20R WCI  27
GREENVILLE     DRIZZLE   36  36 100 N14G20    30.20R WCI  27
WASHINGTON     RAIN      36  35  96 N12       30.16R WCI  28
ELIZABETH CITY RAIN      35  33  92 N18G28    30.16R WCI  24
MANTEO         LGT RAIN  38  37  96 E14G24    30.08F WCI  30
CAPE HATTERAS  LGT RAIN  37  36  96 N17G31    30.09R FOG     WCI  27
$$

NCZ078-087-090-091-093-098-101-060100-
SOUTHEASTERN NORTH CAROLINA

CITY           SKY/WX    TMP DP  RH WIND       PRES   REMARKS
LUMBERTON      LGT RAIN  42  50 100 N14       30.14R
GOLDSBORO      LGT RAIN  37  37 100 N13       30.12R WCI  29
KINSTON        CLOUDY    37  37 100 N15       30.15R WCI  28
KENANSVILLE    LGT RAIN  38  38  98 N9        30.15R WCI  32
NEW BERN       RAIN      39  36  89 NE9       30.10R FOG     WCI  33
CHERRY POINT   LGT RAIN  38  35  89 E15       30.06F WCI  29
BEAUFORT       CLOUDY    38  36  92 NE17      30.09F WCI  28
JACKSONVILLE   RAIN      40  37  89 NE12      30.07R FOG     WCI  33
WILMINGTON     LGT RAIN  42  38  85 E13       30.03F
$$



USA.gov is the U.S. government's official web portal to all federal, state and local government web resources and services.